DECAYED

STARLINK-1483, 45743 (Decayed)

Orbit data source: Space-Track

STARLINK-1483, 45743 was a payload satellite owned by SpaceX/Seattle (US) in LEO that was launched on Sat, 13 Jun 2020 UTC via an FALCON 9 launch vehicle from the Air Force Eastern Test Range (AFETR). Payload-class satellites include a variety of spacecraft equipped with specific instruments for various scientific and technological missions. These include communications satellites like Starlink; space stations such as the ISS; scientific satellites like the Hubble; Earth observation satellites from companies like Planet Labs, Umbra, and HawkEye 360; GPS; miniature CubeSats for education and research; and military/defense satellites.

Not visible in the next 10 days
Identifier
45743, 2020-038P
Orbit
Decayed
Last TLE update
7 months ago
Origin
Manufacturer
SpaceX/Seattle
Mission
Decayed Commercial Communications
Bus & Motor
STARLINK, Unknown motor
Mass
260 kg wet, ~248 kg dry
Launch date (UTC)
2020-06-13 (5 years ago)
Launch vehicle
FALCON 9
Launch site
Air Force Eastern Test Range (AFETR)
Object type
Payload
Rocket body
Debris
Shape & HBR
Box + 1 Pan, 8.86 m
Radar Cross Section
13.562 m², Large (>1 m²)

Expand to show TLE details & history

TLE from 7 months ago
0 STARLINK-1483
1 45743U 20038P   24356.51811432  .14234212  12477-4  33850-3 0  9997
2 45743  53.0105 331.2274 0003994 146.5353 317.7231 16.46121251251688
Epoch: 2024-12-21T12:26Z
TLE epoch observation values (Epoch: 2024-12-21T12:26:05.077Z)
Latitude
50.8938°
Longitude
167.01454°
Altitude
153.597 km
Speed
7.822 km/s
True Right ascension
05h 36m 24s
True Declination
50° 42' 35"
Sunlit
Object was in full shadow at epoch
Visualization orbit readout
Visualization observer readout
Orbital elements
Apogee altitude
152.471 km
Perigee altitude
147.257 km
Semi-major axis
6,528.001 km
Eccentricity
0.0004
Inclination
53.0105°
RAAN
331.2274°
Arg. of periapsis
146.5353°
True anomaly
Unknown
Mean anomaly
317.7231°
Eccentric anomaly
Unknown
Mean motion
4.11503 °/min
Orbital period
87.48 mins
BSTAR
0.0003385
Loading maneuver chart data...
Loading SW <> Apogee altitude chart data...

STARLINK-1483 Visibility

Observer location: undefined°, undefined°

This satellite is decayed
Span
Click to sort rows by Start time (UTC) header in descending order
Start Az.
Max El. time (UTC)
Max El. Az.
Max El.
End time (UTC)
End Az.
|